Fort Campbell, KY

1:54 AM CDT on October 17, 2017 (GMT -0500)
Campbell Army Air Field

Weather History for KHOP - November, 2012

Change the Weather History Date:

Wednesday, November 7, 2012

  Actual Average Record
Temperature  
Mean Temperature 44 °F -  
Max Temperature 48 °F 59 °F 78 °F (1999)
Min Temperature 39 °F 40 °F 25 °F (2007)
Degree Days  
Heating Degree Days 22    
Moisture  
Dew Point 44 °F    
Average Humidity 97    
Maximum Humidity 100    
Minimum Humidity 76    
Precipitation  
Precipitation 0.07 in - - ()
Sea Level Pressure  
Sea Level Pressure 30.00 in    
Wind  
Wind Speed 5 mph (WNW)    
Max Wind Speed 10 mph    
Max Gust Speed -    
Visibility 8 miles    
Events Rain    
Averages and records for this station are not official NWS values.
T = Trace of Precipitation, MM = Missing Value Source: NWS Daily Summary

Daily Weather History Graph

Daily Weather History Graph

Search for Another Location

Airport or City:

Trip Planner

Search our weather history database for the weather conditions in past years. The results will help you decide how hot, cold, wet, or windy it might be!

Date:

Astronomy

Nov. 07, 2012 Rise Set
Actual Time 6:20 AM CST 4:46 PM CST
Civil Twilight 5:52 AM CST 5:13 PM CST
Nautical Twilight 5:22 AM CST 5:44 PM CST
Astronomical Twilight 4:51 AM CST 6:15 PM CST
Moon No Moon Rise 12:45 PM CST (11/7)
Length of Visible Light 11h 20m
Length of Day
10h 26m
Last Quarter, 43% of the Moon is Illuminated
Nov 7
Last Quarter
Nov 13
New
Nov 20
First Quarter
Nov 28
Full
Dec 6
Last Quarter

Hourly Weather History & Observations

Time (CST) Temp. Windchill Dew Point Humidity Pressure Visibility Wind Dir Wind Speed Gust Speed Precip Events Conditions
12:50 AM 46.4 °F 43.5 °F 46.4 °F 100% 29.93 in 10.0 mi West 5.8 mph - N/A   Overcast
12:52 AM 46.4 °F 42.9 °F 46.4 °F 100% 29.93 in 10.0 mi West 6.9 mph - N/A   Overcast
12:55 AM 45.5 °F 41.8 °F 45.5 °F 100% 29.93 in 10.0 mi West 6.9 mph - N/A   Overcast
12:59 AM 44.6 °F 39.7 °F 44.6 °F 100% 29.93 in 10.0 mi WNW 9.2 mph - N/A   Overcast
1:06 AM 44.6 °F 39.2 °F 44.6 °F 100% 29.93 in 10.0 mi WNW 10.4 mph - N/A   Overcast
1:55 AM 45.0 °F 41.2 °F 45.0 °F 100% 29.93 in 10.0 mi WNW 6.9 mph - N/A   Overcast
2:08 AM 44.6 °F 40.7 °F 44.6 °F 100% 29.93 in 10.0 mi WNW 6.9 mph - N/A   Overcast
2:37 AM 44.6 °F 41.4 °F 44.6 °F 100% 29.93 in 10.0 mi West 5.8 mph - N/A   Overcast
2:55 AM 44.4 °F 42.9 °F 44.4 °F 100% 29.93 in 9.0 mi WNW 3.5 mph - N/A   Overcast
3:02 AM 44.6 °F 43.1 °F 44.6 °F 100% 29.92 in 9.0 mi WNW 3.5 mph - N/A   Overcast
3:04 AM 44.6 °F 42.2 °F 44.6 °F 100% 29.92 in 9.0 mi West 4.6 mph - N/A   Overcast
3:37 AM 42.8 °F 41.1 °F 42.8 °F 100% 29.93 in 10.0 mi West 3.5 mph - N/A   Scattered Clouds
3:55 AM 42.1 °F 38.4 °F 42.1 °F 100% 29.94 in 10.0 mi West 5.8 mph - N/A   Scattered Clouds
4:01 AM 42.8 °F 40.1 °F 42.8 °F 100% 29.94 in 10.0 mi West 4.6 mph - N/A   Mostly Cloudy
4:08 AM 42.8 °F 40.1 °F 42.8 °F 100% 29.94 in 9.0 mi West 4.6 mph - N/A   Scattered Clouds
4:10 AM 42.8 °F 40.1 °F 42.8 °F 100% 29.94 in 9.0 mi West 4.6 mph - N/A   Scattered Clouds
4:55 AM 39.9 °F 36.7 °F 39.9 °F 100% 29.94 in 6.0 mi West 4.6 mph - N/A   Clear
5:39 AM 39.2 °F 35.9 °F 39.2 °F 100% 29.95 in 6.0 mi West 4.6 mph - N/A   Mostly Cloudy
5:46 AM 39.2 °F 37.0 °F 39.2 °F 100% 29.95 in 6.0 mi West 3.5 mph - N/A   Mostly Cloudy
5:51 AM 39.2 °F 35.9 °F 39.2 °F 100% 29.95 in 6.0 mi West 4.6 mph - N/A   Mostly Cloudy
5:55 AM 39.7 °F 36.5 °F 39.7 °F 100% 29.95 in 7.0 mi West 4.6 mph - N/A   Mostly Cloudy
6:16 AM 41.0 °F 38.0 °F 41.0 °F 100% 29.95 in 8.0 mi West 4.6 mph - N/A   Overcast
6:55 AM 42.3 °F 40.5 °F 42.3 °F 100% 29.96 in 9.0 mi West 3.5 mph - N/A   Overcast
7:55 AM 43.2 °F - 43.2 °F 100% 29.98 in 7.0 mi Calm Calm - N/A   Overcast
7:58 AM 42.8 °F - 42.8 °F 100% 29.98 in 6.0 mi Calm Calm - N/A   Light Drizzle
8:15 AM 42.8 °F 41.1 °F 42.8 °F 100% 29.98 in 5.0 mi WNW 3.5 mph - N/A   Overcast
8:23 AM 42.8 °F 41.1 °F 42.8 °F 100% 29.98 in 5.0 mi WNW 3.5 mph - N/A   Light Drizzle
8:28 AM 44.6 °F 43.1 °F 44.6 °F 100% 29.98 in 4.0 mi NW 3.5 mph - N/A   Light Drizzle
8:32 AM 44.6 °F 43.1 °F 44.6 °F 100% 29.98 in 3.0 mi NW 3.5 mph - N/A   Light Drizzle
8:43 AM 44.6 °F 43.1 °F 44.6 °F 100% 29.98 in 3.0 mi NW 3.5 mph - N/A   Light Drizzle
8:44 AM 44.6 °F 43.1 °F 44.6 °F 100% 29.98 in 2.5 mi NW 3.5 mph - N/A   Light Drizzle
8:51 AM 44.6 °F 41.4 °F 44.6 °F 100% 29.98 in 2.5 mi NW 5.8 mph - N/A   Light Drizzle
8:52 AM 44.6 °F 41.4 °F 44.6 °F 100% 29.98 in 3.0 mi Variable 5.8 mph - N/A   Light Drizzle
8:55 AM 43.9 °F 41.3 °F 43.9 °F 100% 29.98 in 3.0 mi Variable 4.6 mph - 0.00 in   Drizzle
8:58 AM 44.6 °F 42.2 °F 44.6 °F 100% 29.99 in 3.0 mi Variable 4.6 mph - N/A   Light Drizzle
9:14 AM 44.6 °F 43.1 °F 44.6 °F 100% 29.99 in 2.5 mi Variable 3.5 mph - N/A Rain Rain
9:23 AM 44.6 °F 41.4 °F 44.6 °F 100% 29.99 in 3.0 mi Variable 5.8 mph - N/A Rain Light Rain
9:26 AM 44.6 °F 42.2 °F 44.6 °F 100% 29.99 in 2.5 mi Variable 4.6 mph - N/A Rain Light Rain
9:36 AM 44.6 °F 43.1 °F 44.6 °F 100% 30.00 in 3.0 mi Variable 3.5 mph - N/A Rain Light Rain
9:39 AM 44.6 °F - 44.6 °F 100% 30.00 in 2.5 mi Calm Calm - N/A Rain Light Rain
9:45 AM 44.6 °F 42.2 °F 44.6 °F 100% 30.00 in 3.0 mi Variable 4.6 mph - N/A Rain Light Rain
9:55 AM 44.1 °F 41.5 °F 44.1 °F 100% 30.00 in 3.0 mi NW 4.6 mph - 0.04 in   Drizzle
10:07 AM 44.6 °F 42.2 °F 44.6 °F 100% 30.01 in 5.0 mi Variable 4.6 mph - N/A   Light Drizzle
10:14 AM 44.6 °F - 44.6 °F 100% 30.01 in 8.0 mi Calm Calm - N/A   Light Drizzle
10:22 AM 44.6 °F 43.1 °F 44.6 °F 100% 30.01 in 8.0 mi Variable 3.5 mph - N/A   Light Drizzle
10:31 AM 44.6 °F - 44.6 °F 100% 30.01 in 6.0 mi Calm Calm - N/A   Heavy Drizzle
10:34 AM 44.6 °F - 44.6 °F 100% 30.01 in 6.0 mi Calm Calm - N/A   Heavy Drizzle
10:40 AM 44.6 °F 43.1 °F 44.6 °F 100% 30.02 in 7.0 mi Variable 3.5 mph - N/A   Drizzle
10:42 AM 44.6 °F 42.2 °F 44.6 °F 100% 30.01 in 7.0 mi Variable 4.6 mph - N/A   Drizzle
10:55 AM 45.0 °F 42.6 °F 45.0 °F 100% 30.02 in 8.0 mi Variable 4.6 mph - 0.03 in   Heavy Drizzle
11:10 AM 44.6 °F - 44.6 °F 100% 30.01 in 9.0 mi Calm Calm - N/A   Drizzle
11:13 AM 44.6 °F 42.2 °F 44.6 °F 100% 30.01 in 9.0 mi Variable 4.6 mph - N/A   Light Drizzle
11:16 AM 44.6 °F 42.2 °F 44.6 °F 100% 30.01 in 10.0 mi Variable 4.6 mph - N/A   Light Drizzle
11:41 AM 46.4 °F 44.3 °F 44.6 °F 93% 30.01 in 10.0 mi Variable 4.6 mph - N/A   Mostly Cloudy
11:55 AM 46.0 °F 44.8 °F 44.6 °F 95% 30.01 in 10.0 mi Variable 3.5 mph - 0.00 in   Overcast
12:05 PM 46.4 °F - 44.6 °F 93% 30.01 in 10.0 mi Calm Calm - N/A   Overcast
12:08 PM 46.4 °F - 44.6 °F 93% 30.01 in 10.0 mi Calm Calm - N/A   Overcast
12:30 PM 46.4 °F 44.3 °F 44.6 °F 93% 30.01 in 10.0 mi Variable 4.6 mph - N/A   Overcast
12:55 PM 46.9 °F - 44.1 °F 90% 30.01 in 10.0 mi Variable 3.5 mph - N/A   Overcast
1:25 PM 46.4 °F 42.9 °F 42.8 °F 87% 30.01 in 10.0 mi Variable 6.9 mph - N/A   Overcast
1:55 PM 46.2 °F 44.1 °F 43.3 °F 90% 30.03 in 10.0 mi Variable 4.6 mph - N/A   Overcast
2:03 PM 46.4 °F 42.9 °F 44.6 °F 93% 30.02 in 10.0 mi Variable 6.9 mph - N/A   Overcast
2:55 PM 48.0 °F - 43.2 °F 83% 30.04 in 10.0 mi Variable 4.6 mph - N/A   Overcast
3:41 PM 48.2 °F - 41.0 °F 76% 30.06 in 10.0 mi NW 9.2 mph - N/A   Overcast
3:47 PM 48.2 °F - 42.8 °F 82% 30.06 in 10.0 mi NW 8.1 mph - N/A   Overcast
3:55 PM 47.5 °F - 42.4 °F 83% 30.06 in 10.0 mi NW 8.1 mph - N/A   Overcast
4:55 PM 45.5 °F 42.5 °F 41.5 °F 86% 30.09 in 10.0 mi NW 5.8 mph - N/A   Mostly Cloudy
5:55 PM 44.4 °F 40.5 °F 41.4 °F 89% 30.12 in 10.0 mi NW 6.9 mph - N/A   Overcast
6:55 PM 44.6 °F 40.7 °F 41.5 °F 89% 30.13 in 10.0 mi NW 6.9 mph - N/A   Overcast
7:55 PM 44.4 °F - 41.7 °F 90% 30.15 in 10.0 mi Calm Calm - N/A   Overcast
8:55 PM 44.2 °F 42.7 °F 42.3 °F 93% 30.17 in 10.0 mi WNW 3.5 mph - N/A   Overcast
9:55 PM 44.2 °F - 42.3 °F 93% 30.17 in 10.0 mi Calm Calm - N/A   Overcast
10:55 PM 44.4 °F - 42.4 °F 93% 30.17 in 10.0 mi Calm Calm - N/A   Overcast
11:55 PM 44.2 °F - 42.6 °F 94% 30.17 in 10.0 mi Calm Calm - N/A   Overcast